Retour au catalogue

STARLINK-34757

ActifCommunicationsSSO
NORAD 64850·PAYLOAD·🇺🇸 United States

Lancé Jul 19, 2025 depuis Vandenberg Space Force Base

Loading…

Prochains Passages (prochaines 24 heures)

TLE

FraisSource: CelesTrak SupGP

Époque: Sep 15, 2026, 03:54 UTC

1 64850C 25152J   26258.16298611 -.00081603  00000+0 -25328-2 0  2584
2 64850  97.2841 108.7855 0001849  92.0378 332.6529 15.33484535    13

Suivez STARLINK-34757 en temps réel avec AllMySat

Download on the App Store